Back to catalog

TIANQI 31

AliveCommunicationsLEO
NORAD 61197·PAYLOAD·🇨🇳 China

Launched Sep 20, 2024 from Xichang Satellite Launch Center

Loading…

Next Passes (next 24 hours)

TLE

FreshSource: Space-Track

Epoch: Sep 14, 2026, 15:19 UTC

1 61197U 24170C   26257.63846830  .00000002  00000-0  91245-4 0  9995
2 61197  44.8613  99.3951 0008219 139.4251 220.7193 13.97726910101464

Track TIANQI 31 in real time with AllMySat

Download on the App Store